AirNav   Air Wisconsin pilot careers
 
 708 users online  

I44 Dahio Trotwood Airport
Dayton, Ohio, USA

GOING TO DAYTON?


FAA INFORMATION EFFECTIVE 01 FEBRUARY 2018

Location

FAA Identifier: I44
Lat/Long: 39-45-57.2030N / 084-20-35.8020W
39-45.953383N / 084-20.596700W
39.7658897 / -84.3432783
(estimated)
Elevation: 925 ft. / 282 m (estimated)
Variation: 04W (1985)
From city: 7 miles W of DAYTON, OH
Time zone: UTC -5 (UTC -4 during Daylight Saving Time)
Zip code: 45427

Airport Operations

Airport use: Open to the public
Activation date: 08/1971
Control tower: no
ARTCC: INDIANAPOLIS CENTER
FSS: DAYTON FLIGHT SERVICE STATION
NOTAMs facility: DAY (NOTAM-D service available)
Attendance: IREG
Wind indicator: yes
Segmented circle: no
Beacon: white-green (lighted land airport)
ARPT BCN OTS INDEFLY. Operates sunset to sunrise.

Airport Communications

CTAF/UNICOM: 122.8
COLUMBUS APPROACH: 118.85
COLUMBUS DEPARTURE: 118.85
IC CLASS C: 118.85
WX ASOS at DAY (10 nm NE): PHONE 937-415-6819
WX ASOS at MGY (12 nm SE): 118.375 (937-885-2171)
WX AWOS-3 at MWO (14 nm S): 120.025 (513-422-3505)
WX AWOS-3 at I19 (17 nm E): 118.525 (937-372-4668)
WX AWOS-3 at I68 (19 nm S): 120.55 (513-934-5500)

Nearby radio navigation aids

VOR radial/distance  VOR name  Freq  Var
DQNr172/15.2DAYTON VOR/DME114.5001W
RIDr091/22.9RICHMOND VORTAC110.6003W
SGHr264/23.4SPRINGFIELD VOR/DME113.2004W
MXQr313/32.2MIDWEST VOR/DME112.9004W
RODr209/34.2ROSEWOOD VORTAC117.5005W

 
NDB name  Hdg/Dist  Freq  Var  ID
BRUNY191/4.931506WAT .- -
ONIDA359/11.322304WMW -- .--
HOOK FIELD021/16.723904WHKF .... -.- ..-.
CLARK COUNTY260/26.834104WCCJ -.-. -.-. .---
MADEIRA005/32.637904WMDE -- -.. .
CINCINNATI004/36.433504WLUK .-.. ..- -.-

Airport Services

Parking: tiedowns
Bottled oxygen: NONE
Bulk oxygen: NONE

Runway Information

Runway 4/22

Dimensions: 2900 x 52 ft. / 884 x 16 m
Surface: asphalt, in poor condition
NUMEROUS CRACKS IN PAVEMENT W/ VEGETATION.
Weight bearing capacity: 
Single wheel: 5000 LBS SINGLE WHEEL STRENGTH LIMIT PER ARPT MGR.
RUNWAY 4  RUNWAY 22
Latitude: 39-45.731333N39-46.081333N
Longitude: 084-20.787667W084-20.367667W
Elevation: 925.0 ft.925.0 ft.
Gradient: 0.3%0.3%
Traffic pattern: leftleft
Runway end identifier lights: nono
Obstructions: 80 ft. trees, 717 ft. from runway, 120 ft. right of centerline, 6:1 slope to clear65 ft. trees, 633 ft. from runway, 6:1 slope to clear
40 FT TREES 0 FT FM RY END 20-125 FT L; CROPS 0 FT FM RY END 125 FT R/L.

Airport Ownership and Management from official FAA records

Ownership: Privately-owned
Owner: S & S LAND & FARMS, LLC
3500 PENTAGON BLVD., SUITE 400
BEAVERCREEK, OH 45431
Phone 937-263-2676
Manager: STEVE RAUCH
84 PHEASENT RUN
DAYTON, OH 45418
Phone 937-263-2676
CELL 937-604-2619

Airport Operational Statistics

Aircraft operations: 100/year *
100% transient general aviation
* for 12-month period ending 02 September 2016

Additional Remarks

ULTRALIGHTS ON & INVOF ARPT.
COLUMBUS APCH CTL TEL# 614-338-8537.

Instrument Procedures

There are no published instrument procedures at I44.

Some nearby airports with instrument procedures:

3I7 - Phillipsburg Airport (9 nm N)
KDAY - James M Cox Dayton International Airport (10 nm NE)
KMGY - Dayton-Wright Brothers Airport (12 nm SE)
KFFO - Wright-Patterson Air Force Base (14 nm E)
KMWO - Middletown Regional Airport/Hook Field (14 nm S)
I19 - Greene County-Lewis A Jackson Regional Airport (17 nm E)
I68 - Warren County Airport/John Lane Field (19 nm S)
 
Loc | Ops | Rwys | IFR | FBO | Links
Com | Nav | Svcs | Stats | Notes

AirNav Hotels Sweepstakes
 
Area around I44 (Dahio Trotwood Airport)
 
Road maps at: MapQuest Bing Google
 
Aerial photo
WARNING: Photo may not be current or correct
Aerial photo of I44 (Dahio Trotwood Airport)
Photo taken 12-Oct-2014
looking southwest.

Do you have a better or more recent aerial photo of Dahio Trotwood Airport that you would like to share? If so, please send us your photo.

 
Sectional chart

 
Airport distance calculator
Flying to Dahio Trotwood Airport? Find the distance to fly.

From to I44

Sunrise and sunset
Times for 24-Feb-2018
 Local
(UTC-5)
 Zulu
(UTC)
Morning civil twilight06:5211:52
Sunrise07:1912:19
Sunset18:2223:22
Evening civil twilight18:5023:50

Current date and time
Zulu (UTC)  25-Feb-2018 04:36:52
Local (UTC-5)  24-Feb-2018 23:36:52
 
METAR
KDAY 
10nm NE 
250406Z 03006KT 2SM +RA BR BKN006 BKN017 OVC026 09/09 A2976 RMK AO2 PRESFR BKN006 V SCT P0010 T00940094
KMGY 
11nm SE 
250353Z AUTO 06006KT 3SM +RA BR SCT018 BKN027 OVC036 12/11 A2973 RMK AO2 SLP068 P0037 T01220111
KMWO 
14nm S 
250415Z AUTO 32006KT 3 1/2SM OVC012 11/11 A2976 RMK AO2 LTG DSNT SW P0023 PWINO T01110108
KFFO 
15nm E 
250356Z 00000KT 5SM -SHRA BR OVC004 10/09 A2978 RMK AO2A SLP089 P0020 T01020093
TAF
KDAY 
10nm NE 
250333Z 2504/2524 12012G22KT 2SM +SHRA BR VCTS OVC005CB WS020/18045KT FM250600 18016G26KT 4SM SHRA VCTS OVC015CB FM250800 20018G33KT P6SM -SHRA OVC015 FM251100 25018G35KT P6SM BKN015 FM251500 25015G25KT P6SM SCT020 FM251800 25010G18KT P6SM SCT250 FM252300 25008KT P6SM SCT250
KFFO 
15nm E 
250300Z 2503/2609 13009KT 8000 -SHRA BR OVC006 510203 QNH2957INS WND 20012KT AFT 2505 TEMPO 2503/2507 OVC007 BECMG 2506/2507 20015G25KT 8000 -SHRA BR OVC010 510202 540403 QNH2955INS BECMG 2511/2512 26015G25KT 9999 NSW SCT015 510202 QNH2974INS BECMG 2515/2516 26010G15KT 9999 SKC QNH2994INS BECMG 2522/2523 26009KT 9999 SKC QNH3003INS TX17/2509Z TN03/2603Z
NOTAMs
Click for the latest NOTAMs
NOTAMs are issued by the DoD/FAA and will open in a separate window not controlled by AirNav.

 

 
 

Would you like to see your business listed on this page?

 If your business provides an interesting product or service to pilots, flight crews, aircraft, or users of the Dahio Trotwood Airport, you should consider listing it here.  To start the listing process, click on the button below
 
Add a business
 

Other Pages about Dahio Trotwood Airport

Update a link
 
Copyright © AirNav, LLC. All rights reserved. Privacy Policy  Contact